Home > Weather > Guayaquil > Past weeks

Flag for Ecuador Weather for the Past 2 Weeks in Guayaquil, Ecuador

Now
77 °F

Light rain. Mostly cloudy.


Feels Like: 78 °F
Forecast: N/A
Wind: 10 mph from Southwest

Location: Guayaquil / Simon Bolivar

Current Time: Feb 11, 2016 at 6:45:29 PM

Latest Report: Feb 11, 2016 at 6:00 PM


Visibility: 4 mi

Pressure: 29.77 "Hg

Humidity: 94%

Dew point: 75 °F

Location of GuayaquilLocation

Historic Weather in Guayaquil — Graph

°F

Guayaquil Temperature Yesterday

Maximum temperature yesterday: 90 °F (at 3:00 PM)
Minimum temperature yesterday: 77 °F (at 12:00 AM)
Average temperature yesterday: 82 °F

High & Low Weather Summary for the Past Weeks

 TemperatureHumidityPressure
High90 °F (Feb 1, 2:00 PM)100% (Feb 9, 2:00 AM)29.92 "Hg (Feb 9, 2:00 AM)
Low73 °F (Feb 4, 9:00 AM)52% (Feb 5, 4:00 PM)29.68 "Hg (Feb 7, 4:00 PM)
Average80 °F82%29.82 "Hg
* Reported Jan 27 4:00 PM — Feb 11 4:00 PM, Guayaquil, Weather by CustomWeather, © 2016

Note: Actual official high and low records may vary slightly from our data, if they occured in-between our weather recording intervals... More about our weather records

Advertising

Guayaquil Weather History for the Previous 24 Hours

 ConditionsComfort  
Time TempWeatherWind HumidityBarometerVisibility
4:00 PM
Thu, Feb 11
82 °FScattered showers. Partly sunny.3 mph79%29.77 "HgN/A
3:00 PM84 °FPartly sunny.5 mph70%29.77 "HgN/A
2:00 PM84 °FPartly sunny.7 mph74%29.80 "HgN/A
1:00 PM84 °FBroken clouds.6 mph74%29.83 "HgN/A
12:00 PM82 °FBroken clouds.8 mph79%29.86 "HgN/A
11:00 AM82 °FBroken clouds.9 mph79%29.86 "HgN/A
10:00 AM82 °FBroken clouds.6 mph79%29.89 "HgN/A
9:00 AM81 °FBroken clouds.6 mph84%29.89 "HgN/A
8:00 AM79 °FBroken clouds.5 mph84%29.86 "HgN/A
7:00 AM77 °FScattered showers. Partly sunny.5 mph89%29.86 "HgN/A
6:00 AM77 °FPartly cloudy.5 mph89%29.83 "Hg5 mi
5:00 AM77 °FPassing clouds.2 mph89%29.83 "Hg5 mi
4:00 AM79 °FPassing clouds.6 mph84%29.83 "HgN/A
3:00 AM79 °FPassing clouds.5 mph84%29.83 "HgN/A
2:00 AM79 °FPassing clouds.8 mph84%29.83 "HgN/A
1:00 AM79 °FPassing clouds.9 mph84%29.86 "HgN/A
12:00 AM79 °FPassing clouds.6 mph84%29.86 "HgN/A
11:00 PM
Wed, Feb 10
81 °FPassing clouds.9 mph79%29.89 "HgN/A
10:00 PM81 °FPassing clouds.8 mph79%29.89 "HgN/A
9:00 PM81 °FScattered showers. Passing clouds.8 mph84%29.86 "HgN/A
8:00 PM82 °FLight rain. Passing clouds.5 mph84%29.83 "HgN/A
7:00 PM82 °FLight rain. Passing clouds.6 mph79%29.80 "HgN/A
6:00 PM84 °FLight rain. Broken clouds.8 mph74%29.77 "HgN/A
Weather by CustomWeather, © 2016

See weather overviewHow to use our weather pages